Radiation Dose at Monitoring Post of Fukushima Daini Nuclear Power Station
Date,Time,MP-1(microSv/h),MP-2(microSv/h),MP-3(microSv/h),MP-4(microSv/h),MP-5(microSv/h),MP-6(microSv/h),MP-7(microSv/h),Wind Direction,Wind Velocity(m/s),Rain
2017/11/10,00:00,0.332,0.211,0.349,0.329,0.312,0.169,0.101,west,5.5,No
2017/11/10,00:10,0.333,0.212,0.349,0.329,0.311,0.170,0.103,west,5.3,No
2017/11/10,00:20,0.329,0.212,0.348,0.330,0.313,0.171,0.102,west-northwest,5.9,No
2017/11/10,00:30,0.330,0.212,0.352,0.329,0.312,0.171,0.102,west-northwest,6.3,No
2017/11/10,00:40,0.331,0.211,0.348,0.329,0.311,0.172,0.102,west-northwest,5.9,No
2017/11/10,00:50,0.329,0.212,0.349,0.330,0.311,0.170,0.101,west-northwest,6.5,No
2017/11/10,01:00,0.331,0.212,0.349,0.330,0.312,0.170,0.102,west-northwest,6.3,No
2017/11/10,01:10,0.331,0.212,0.348,0.329,0.312,0.170,0.103,northwest,6.0,No
2017/11/10,01:20,0.331,0.212,0.348,0.330,0.313,0.170,0.101,northwest,5.4,No
2017/11/10,01:30,0.331,0.212,0.350,0.328,0.313,0.171,0.102,northwest,4.8,No
2017/11/10,01:40,0.333,0.211,0.348,0.329,0.311,0.171,0.101,north-northwest,4.4,No
2017/11/10,01:50,0.332,0.212,0.350,0.330,0.313,0.171,0.102,northwest,3.9,No
2017/11/10,02:00,0.331,0.212,0.350,0.330,0.312,0.170,0.101,north-northwest,4.2,No
2017/11/10,02:10,0.331,0.212,0.347,0.329,0.312,0.171,0.101,north-northwest,4.3,No
2017/11/10,02:20,0.330,0.211,0.349,0.328,0.312,0.172,0.100,north-northwest,5.1,No
2017/11/10,02:30,0.330,0.213,0.350,0.329,0.312,0.170,0.102,north-northwest,5.3,No
2017/11/10,02:40,0.332,0.212,0.349,0.329,0.312,0.171,0.102,north-northwest,5.4,No
2017/11/10,02:50,0.330,0.212,0.349,0.328,0.313,0.171,0.101,north-northwest,6.2,No
2017/11/10,03:00,0.331,0.212,0.350,0.331,0.313,0.170,0.102,north-northwest,4.6,No
2017/11/10,03:10,0.331,0.212,0.347,0.328,0.311,0.171,0.101,north-northwest,4.4,No
2017/11/10,03:20,0.330,0.212,0.348,0.328,0.313,0.171,0.101,north-northwest,4.2,No
2017/11/10,03:30,0.332,0.213,0.350,0.329,0.312,0.171,0.102,north-northwest,4.6,No
2017/11/10,03:40,0.331,0.213,0.348,0.330,0.311,0.171,0.102,north-northwest,4.1,No
2017/11/10,03:50,0.330,0.212,0.348,0.329,0.312,0.170,0.102,north-northwest,3.0,No
2017/11/10,04:00,0.329,0.212,0.350,0.328,0.314,0.170,0.101,northwest,1.8,No
2017/11/10,04:10,0.332,0.212,0.350,0.328,0.312,0.170,0.102,west-southwest,1.1,No
2017/11/10,04:20,0.332,0.212,0.347,0.328,0.312,0.170,0.101,northwest,1.7,No
2017/11/10,04:30,0.331,0.212,0.348,0.328,0.312,0.170,0.101,north-northwest,5.3,No
2017/11/10,04:40,0.331,0.212,0.349,0.329,0.313,0.171,0.102,northwest,5.2,No
2017/11/10,04:50,0.332,0.212,0.348,0.329,0.310,0.171,0.102,northwest,5.4,No
2017/11/10,05:00,0.331,0.212,0.349,0.329,0.311,0.170,0.102,northwest,6.2,No
2017/11/10,05:10,0.330,0.213,0.350,0.328,0.313,0.171,0.101,northwest,6.3,No
2017/11/10,05:20,0.331,0.213,0.349,0.329,0.312,0.170,0.102,northwest,7.1,No
2017/11/10,05:30,0.331,0.212,0.347,0.328,0.312,0.170,0.102,northwest,7.0,No
2017/11/10,05:40,0.330,0.212,0.348,0.328,0.314,0.170,0.101,west-northwest,4.6,No
2017/11/10,05:50,0.332,0.213,0.349,0.328,0.312,0.170,0.102,northwest,4.0,No
2017/11/10,06:00,0.330,0.213,0.347,0.329,0.310,0.170,0.102,west-northwest,5.3,No
2017/11/10,06:10,0.329,0.212,0.349,0.329,0.312,0.171,0.102,west-northwest,4.5,No
2017/11/10,06:20,0.330,0.211,0.350,0.327,0.314,0.170,0.102,northwest,5.2,No
2017/11/10,06:30,0.331,0.211,0.350,0.328,0.312,0.170,0.102,northwest,3.5,No
2017/11/10,06:40,0.331,0.212,0.349,0.330,0.311,0.170,0.102,northwest,5.0,No
2017/11/10,06:50,0.331,0.211,0.350,0.330,0.312,0.170,0.102,north-northwest,5.3,No
2017/11/10,07:00,0.332,0.213,0.351,0.328,0.309,0.170,0.101,northwest,2.5,No
2017/11/10,07:10,0.331,0.211,0.348,0.329,0.311,0.171,0.101,north-northwest,4.1,No
2017/11/10,07:20,0.330,0.211,0.349,0.328,0.311,0.170,0.102,north-northwest,3.7,No
2017/11/10,07:30,0.331,0.211,0.349,0.327,0.311,0.172,0.100,northwest,2.0,No
2017/11/10,07:40,0.331,0.211,0.347,0.326,0.313,0.171,0.101,west-northwest,1.0,No
2017/11/10,07:50,0.330,0.211,0.349,0.327,0.311,0.171,0.102,-,CALM,No
2017/11/10,08:00,0.330,0.211,0.350,0.327,0.311,0.170,0.101,north-northeast,0.8,No
2017/11/10,08:10,0.331,0.212,0.347,0.327,0.313,0.170,0.101,north,1.1,No
2017/11/10,08:20,0.329,0.212,0.348,0.327,0.311,0.170,0.101,north,0.8,No
2017/11/10,08:30,0.330,0.212,0.349,0.327,0.314,0.170,0.101,-,CALM,No
2017/11/10,08:40,0.330,0.211,0.347,0.326,0.312,0.169,0.101,southeast,0.6,No
2017/11/10,08:50,0.331,0.211,0.348,0.326,0.311,0.169,0.102,southeast,0.9,No
2017/11/10,09:00,0.331,0.212,0.348,0.325,0.313,0.171,0.101,east-southeast,1.5,No
2017/11/10,09:10,0.330,0.211,0.348,0.328,0.312,0.169,0.101,east-southeast,1.2,No
2017/11/10,09:20,0.331,0.212,0.349,0.325,0.313,0.170,0.102,east-southeast,1.0,No
2017/11/10,09:30,0.329,0.210,0.348,0.328,0.312,0.170,0.101,east,1.3,No
2017/11/10,09:40,0.329,0.211,0.347,0.327,0.311,0.170,0.102,east-northeast,2.7,No
2017/11/10,09:50,0.326,0.210,0.349,0.325,0.311,0.169,0.101,east-northeast,2.7,No
2017/11/10,10:00,0.329,0.212,0.347,0.329,0.312,0.171,0.102,east,2.2,No
2017/11/10,10:10,0.325,0.210,0.349,0.327,0.311,0.170,0.101,southeast,2.5,No
2017/11/10,10:20,0.329,0.211,0.346,0.326,0.313,0.171,0.102,southeast,2.7,No
2017/11/10,10:30,0.329,0.211,0.350,0.327,0.312,0.171,0.102,southeast,3.7,No
2017/11/10,10:40,0.326,0.211,0.348,0.326,0.313,0.170,0.101,southeast,2.7,No
2017/11/10,10:50,0.329,0.214,0.348,0.329,0.313,0.171,0.101,-,-,No
2017/11/10,11:00,0.330,0.211,0.349,0.327,0.312,0.172,0.101,-,-,No
2017/11/10,11:10,0.325,0.213,0.348,0.327,0.315,0.170,0.101,-,-,No
2017/11/10,11:20,0.330,0.212,0.349,0.329,0.310,0.171,0.102,-,-,No
2017/11/10,11:30,0.328,0.211,0.347,0.328,0.315,0.171,0.102,south-southeast,4.0,No
2017/11/10,11:40,0.326,0.213,0.348,0.330,0.313,0.171,0.102,south-southeast,4.0,No
2017/11/10,11:50,0.331,0.211,0.347,0.326,0.310,0.170,0.101,south-southeast,4.9,No
2017/11/10,12:00,0.330,0.211,0.349,0.329,0.315,0.171,0.102,south-southeast,6.6,No
2017/11/10,12:10,0.329,0.212,0.347,0.327,0.311,0.172,0.101,south-southeast,6.4,No
2017/11/10,12:20,0.331,0.213,0.350,0.329,0.314,0.171,0.101,south,7.0,No
2017/11/10,12:30,0.329,0.212,0.347,0.329,0.313,0.171,0.101,south,8.6,No
2017/11/10,12:40,0.333,0.213,0.348,0.328,0.313,0.171,0.102,south,8.5,No
2017/11/10,12:50,0.329,0.212,0.348,0.331,0.313,0.172,0.102,south,9.6,No
2017/11/10,13:00,0.333,0.211,0.345,0.327,0.310,0.171,0.101,south,10.1,No
2017/11/10,13:10,0.331,0.212,0.348,0.330,0.315,0.170,0.102,south,9.5,No
2017/11/10,13:20,0.331,0.211,0.344,0.328,0.312,0.172,0.101,south-southeast,9.8,No
2017/11/10,13:30,0.331,0.214,0.349,0.330,0.314,0.172,0.102,south,10.1,No
2017/11/10,13:40,0.331,0.211,0.349,0.328,0.312,0.172,0.101,south-southeast,7.9,No
2017/11/10,13:50,0.329,0.213,0.349,0.330,0.315,0.171,0.102,south,9.5,No
2017/11/10,14:00,0.332,0.213,0.349,0.329,0.313,0.171,0.101,south,8.6,No
2017/11/10,14:10,0.329,0.213,0.350,0.329,0.315,0.171,0.102,south-southeast,7.1,No
2017/11/10,14:20,0.331,0.212,0.349,0.330,0.313,0.171,0.102,south,7.9,No
2017/11/10,14:30,0.330,0.212,0.351,0.330,0.315,0.172,0.102,south,9.3,No
2017/11/10,14:40,0.331,0.212,0.349,0.329,0.312,0.170,0.102,south,8.4,No
2017/11/10,14:50,0.330,0.212,0.351,0.331,0.315,0.173,0.102,south,5.3,No
2017/11/10,15:00,0.330,0.212,0.348,0.329,0.314,0.171,0.102,south,10.1,No
2017/11/10,15:10,0.329,0.212,0.349,0.330,0.315,0.172,0.102,south,7.7,No
2017/11/10,15:20,0.331,0.211,0.348,0.330,0.313,0.172,0.102,south-southwest,6.7,No
2017/11/10,15:30,0.331,0.213,0.351,0.330,0.313,0.172,0.101,south,8.1,No
2017/11/10,15:40,0.328,0.212,0.348,0.330,0.315,0.171,0.102,south-southwest,7.0,No
2017/11/10,15:50,0.331,0.212,0.349,0.329,0.312,0.171,0.102,south-southwest,8.3,No
2017/11/10,16:00,0.330,0.213,0.349,0.331,0.314,0.170,0.102,south-southwest,4.8,No
2017/11/10,16:10,0.331,0.214,0.348,0.330,0.313,0.172,0.102,south-southwest,4.6,No
2017/11/10,16:20,0.330,0.212,0.351,0.331,0.315,0.171,0.102,south-southwest,9.0,No
2017/11/10,16:30,0.331,0.212,0.349,0.330,0.314,0.171,0.102,south-southwest,8.4,No
2017/11/10,16:40,0.331,0.212,0.352,0.332,0.314,0.171,0.102,south-southwest,8.8,No
2017/11/10,16:50,0.329,0.212,0.348,0.332,0.316,0.172,0.102,south-southwest,8.2,No
2017/11/10,17:00,0.331,0.212,0.351,0.329,0.314,0.171,0.102,south-southwest,8.9,No
2017/11/10,17:10,0.330,0.212,0.349,0.330,0.314,0.170,0.102,south-southwest,8.7,No
2017/11/10,17:20,0.332,0.212,0.349,0.329,0.314,0.173,0.102,south-southwest,10.1,No
2017/11/10,17:30,0.331,0.212,0.349,0.331,0.313,0.171,0.102,south-southwest,9.5,No
2017/11/10,17:40,0.330,0.212,0.348,0.331,0.313,0.172,0.102,south-southwest,10.6,No
2017/11/10,17:50,0.331,0.212,0.351,0.328,0.313,0.172,0.102,south-southwest,10.4,No
2017/11/10,18:00,0.329,0.211,0.347,0.333,0.313,0.172,0.102,south-southwest,10.1,No
2017/11/10,18:10,0.330,0.212,0.348,0.332,0.312,0.171,0.102,south-southwest,10.4,No
2017/11/10,18:20,0.329,0.211,0.349,0.330,0.313,0.171,0.102,south-southwest,9.8,No
2017/11/10,18:30,0.332,0.213,0.348,0.330,0.315,0.172,0.102,south-southwest,10.1,No
2017/11/10,18:40,0.331,0.213,0.350,0.330,0.312,0.172,0.102,south-southwest,11.2,No
2017/11/10,18:50,0.329,0.212,0.348,0.331,0.314,0.172,0.103,south-southwest,10.1,No
2017/11/10,19:00,0.331,0.212,0.350,0.330,0.314,0.171,0.103,south-southwest,10.4,No
2017/11/10,19:10,0.329,0.213,0.350,0.330,0.313,0.171,0.103,south-southwest,10.1,No
2017/11/10,19:20,0.330,0.212,0.350,0.332,0.314,0.172,0.102,south-southwest,10.6,No
2017/11/10,19:30,0.332,0.213,0.349,0.329,0.312,0.170,0.102,south-southwest,9.2,No
2017/11/10,19:40,0.330,0.212,0.348,0.332,0.314,0.170,0.102,south-southwest,9.6,No
2017/11/10,19:50,0.331,0.212,0.351,0.330,0.313,0.170,0.102,south-southwest,9.3,No
2017/11/10,20:00,0.331,0.212,0.347,0.330,0.313,0.171,0.101,south-southwest,9.5,No
2017/11/10,20:10,0.331,0.212,0.348,0.331,0.315,0.171,0.102,south-southwest,8.9,No
2017/11/10,20:20,0.332,0.212,0.349,0.328,0.313,0.172,0.101,south-southwest,9.2,No
2017/11/10,20:30,0.329,0.213,0.349,0.331,0.314,0.171,0.101,south-southwest,9.6,No
2017/11/10,20:40,0.330,0.212,0.350,0.329,0.313,0.171,0.102,south-southwest,8.8,No
2017/11/10,20:50,0.330,0.212,0.349,0.331,0.312,0.172,0.102,south-southwest,9.8,No
2017/11/10,21:00,0.330,0.213,0.351,0.331,0.314,0.171,0.102,south-southwest,8.2,No
2017/11/10,21:10,0.332,0.212,0.349,0.329,0.313,0.171,0.102,south-southwest,9.2,No
2017/11/10,21:20,0.329,0.213,0.350,0.332,0.314,0.172,0.102,south-southwest,9.2,No
2017/11/10,21:30,0.331,0.212,0.348,0.330,0.313,0.172,0.102,south-southwest,10.1,No
2017/11/10,21:40,0.330,0.212,0.348,0.331,0.313,0.171,0.103,south-southwest,12.0,No
2017/11/10,21:50,0.331,0.213,0.350,0.329,0.316,0.173,0.103,south-southwest,13.7,No
2017/11/10,22:00,0.331,0.212,0.348,0.329,0.314,0.172,0.102,south-southwest,13.7,No
2017/11/10,22:10,0.328,0.212,0.350,0.332,0.315,0.171,0.102,south-southwest,12.8,No
2017/11/10,22:20,0.331,0.212,0.348,0.329,0.312,0.172,0.102,south-southwest,13.7,No
2017/11/10,22:30,0.330,0.212,0.350,0.332,0.314,0.172,0.102,south-southwest,13.6,No
2017/11/10,22:40,0.332,0.213,0.349,0.329,0.314,0.171,0.102,south-southwest,16.0,No
2017/11/10,22:50,0.329,0.212,0.349,0.332,0.313,0.172,0.102,south-southwest,16.5,No
2017/11/10,23:00,0.332,0.213,0.348,0.329,0.315,0.172,0.102,south-southwest,18.5,No
2017/11/10,23:10,0.331,0.213,0.347,0.330,0.313,0.172,0.102,south-southwest,17.5,No
2017/11/10,23:20,0.330,0.213,0.351,0.331,0.316,0.172,0.102,south-southwest,15.7,No
2017/11/10,23:30,0.331,0.214,0.349,0.330,0.312,0.171,0.102,south-southwest,15.3,No
2017/11/10,23:40,0.330,0.212,0.351,0.331,0.315,0.171,0.102,south-southwest,14.4,No
2017/11/10,23:50,0.332,0.213,0.348,0.331,0.313,0.171,0.102,south,14.3,No
